| time (UTC) | temp C | wind direction | speed KPH | gust KPH | rain 1hr cm | rain 24hr cm | rain mn cm | humidity % | barometer mb |
| 20260509211546 | 8 | 77 | 6.4 | 16.1 | 0.00 | 0.00 | 0.00 | 82 | 1019.4 |
| 20260509210049 | 8 | 59 | 8.0 | 16.1 | 0.00 | 0.00 | 0.00 | 82 | 1019.2 |
| 20260509204551 | 8 | 67 | 6.4 | 17.7 | 0.00 | 0.00 | 0.00 | 82 | 1019.2 |
| 20260509203046 | 8 | 80 | 8.0 | 16.1 | 0.00 | 0.00 | 0.00 | 83 | 1019.2 |
| 20260509201558 | 8 | 57 | 8.0 | 20.9 | 0.00 | 0.00 | 0.00 | 82 | 1019.2 |
| 20260509200058 | 8 | 65 | 6.4 | 19.3 | 0.00 | 0.00 | 0.00 | 82 | 1019.2 |
| 20260509194545 | 8 | 78 | 9.7 | 17.7 | 0.00 | 0.00 | 0.00 | 82 | 1019.1 |
| 20260509193048 | 8 | 77 | 8.0 | 20.9 | 0.00 | 0.00 | 0.00 | 82 | 1019.0 |
| 20260509191546 | 8 | 48 | 8.0 | 20.9 | 0.00 | 0.00 | 0.00 | 81 | 1018.9 |
| 20260509190103 | 8 | 50 | 11.3 | 20.9 | 0.00 | 0.00 | 0.00 | 81 | 1018.8 |
| 20260509184547 | 8 | 40 | 12.9 | 22.5 | 0.00 | 0.10 | 0.00 | 81 | 1018.8 |
| 20260509183049 | 9 | 56 | 12.9 | 24.1 | 0.00 | 0.10 | 0.00 | 81 | 1018.5 |
| 20260509181548 | 9 | 82 | 14.5 | 25.7 | 0.00 | 0.10 | 0.00 | 81 | 1018.6 |
| 20260509180051 | 9 | 38 | 14.5 | 25.7 | 0.00 | 0.10 | 0.00 | 81 | 1018.5 |
| 20260509174543 | 9 | 58 | 14.5 | 25.7 | 0.00 | 0.13 | 0.00 | 81 | 1018.4 |
| 20260509173049 | 9 | 38 | 17.7 | 30.6 | 0.00 | 0.13 | 0.00 | 81 | 1018.3 |
| 20260509171548 | 10 | 29 | 17.7 | 27.4 | 0.00 | 0.13 | 0.00 | 81 | 1018.2 |
| 20260509170044 | 10 | 47 | 14.5 | 25.7 | 0.00 | 0.13 | 0.00 | 81 | 1018.0 |
| 20260509164551 | 10 | 23 | 17.7 | 30.6 | 0.00 | 0.15 | 0.00 | 80 | 1018.0 |
| 20260509163051 | 10 | 49 | 17.7 | 30.6 | 0.00 | 0.15 | 0.00 | 80 | 1018.1 |
| 20260509161556 | 10 | 49 | 19.3 | 29.0 | 0.00 | 0.15 | 0.00 | 80 | 1018.0 |
| 20260509160053 | 10 | 40 | 17.7 | 30.6 | 0.00 | 0.15 | 0.00 | 79 | 1018.2 |
| 20260509154550 | 11 | 43 | 16.1 | 29.0 | 0.00 | 0.15 | 0.00 | 78 | 1018.0 |
| 20260509153053 | 11 | 57 | 19.3 | 30.6 | 0.00 | 0.15 | 0.00 | 78 | 1018.0 |
| 20260509151548 | 11 | 46 | 17.7 | 30.6 | 0.00 | 0.15 | 0.00 | 79 | 1017.9 |
| 20260509150051 | 11 | 32 | 17.7 | 32.2 | 0.00 | 0.15 | 0.00 | 78 | 1018.0 |
| 20260509144547 | 11 | 45 | 17.7 | 30.6 | 0.00 | 0.15 | 0.00 | 78 | 1017.8 |
| 20260509143056 | 11 | 39 | 19.3 | 27.4 | 0.00 | 0.15 | 0.00 | 76 | 1017.9 |
| 20260509141544 | 11 | 58 | 14.5 | 27.4 | 0.00 | 0.15 | 0.00 | 77 | 1018.0 |
| 20260509140100 | 11 | 42 | 19.3 | 27.4 | 0.00 | 0.15 | 0.00 | 77 | 1018.0 |
| 20260509134623 | 12 | 63 | 16.1 | 24.1 | 0.00 | 0.15 | 0.00 | 77 | 1017.9 |
| 20260509133047 | 12 | 52 | 14.5 | 29.0 | 0.00 | 0.15 | 0.00 | 77 | 1018.0 |
| 20260509131551 | 12 | 44 | 17.7 | 27.4 | 0.00 | 0.15 | 0.00 | 76 | 1018.0 |
| 20260509130045 | 12 | 46 | 17.7 | 24.1 | 0.00 | 0.15 | 0.00 | 76 | 1018.1 |
| 20260509124543 | 12 | 35 | 11.3 | 24.1 | 0.00 | 0.15 | 0.00 | 76 | 1018.1 |
| 20260509123047 | 12 | 42 | 19.3 | 27.4 | 0.00 | 0.15 | 0.00 | 74 | 1018.3 |
| 20260509121550 | 12 | 40 | 16.1 | 24.1 | 0.00 | 0.15 | 0.00 | 75 | 1018.4 |
| 20260509120050 | 12 | 41 | 11.3 | 25.7 | 0.00 | 0.15 | 0.00 | 77 | 1018.4 |
| 20260509114548 | 12 | 45 | 14.5 | 25.7 | 0.00 | 0.15 | 0.00 | 78 | 1018.4 |
| 20260509113048 | 11 | 66 | 12.9 | 24.1 | 0.00 | 0.15 | 0.00 | 79 | 1018.7 |
| 20260509111544 | 11 | 47 | 11.3 | 24.1 | 0.00 | 0.15 | 0.00 | 78 | 1018.7 |
| 20260509110042 | 11 | 26 | 14.5 | 22.5 | 0.00 | 0.15 | 0.00 | 77 | 1018.6 |
| 20260509104548 | 11 | 20 | 12.9 | 22.5 | 0.00 | 0.15 | 0.00 | 79 | 1018.6 |
| 20260509103053 | 11 | 58 | 14.5 | 25.7 | 0.00 | 0.15 | 0.00 | 80 | 1018.7 |
| 20260509101601 | 10 | 46 | 12.9 | 24.1 | 0.00 | 0.15 | 0.00 | 80 | 1018.7 |
| 20260509100044 | 11 | 22 | 8.0 | 19.3 | 0.00 | 0.15 | 0.00 | 80 | 1018.8 |
| 20260509094551 | 10 | 44 | 6.4 | 19.3 | 0.00 | 0.18 | 0.00 | 80 | 1018.7 |
| 20260509093058 | 10 | 26 | 12.9 | 20.9 | 0.00 | 0.18 | 0.00 | 80 | 1018.8 |
| 20260509091554 | 10 | 35 | 9.7 | 17.7 | 0.00 | 0.18 | 0.00 | 82 | 1018.8 |
| 20260509090053 | 10 | 15 | 8.0 | 14.5 | 0.00 | 0.18 | 0.00 | 84 | 1018.7 |
| 20260509084550 | 9 | 59 | 9.7 | 16.1 | 0.00 | 0.18 | 0.00 | 85 | 1018.7 |
| 20260509083055 | 9 | 51 | 4.8 | 14.5 | 0.00 | 0.18 | 0.00 | 87 | 1018.8 |
| 20260509081552 | 8 | 85 | 4.8 | 16.1 | 0.00 | 0.18 | 0.00 | 88 | 1018.6 |
| 20260509080044 | 8 | 67 | 9.7 | 16.1 | 0.00 | 0.18 | 0.00 | 88 | 1018.6 |
| 20260509074558 | 8 | 84 | 9.7 | 16.1 | 0.00 | 0.18 | 0.00 | 89 | 1018.4 |
| 20260509073050 | 8 | 42 | 9.7 | 19.3 | 0.00 | 0.18 | 0.00 | 89 | 1018.5 |
| 20260509071550 | 8 | 47 | 8.0 | 20.9 | 0.00 | 0.18 | 0.00 | 89 | 1018.5 |
| 20260509070048 | 8 | 45 | 9.7 | 19.3 | 0.00 | 0.18 | 0.00 | 90 | 1018.4 |
| 20260509064559 | 8 | 92 | 8.0 | 19.3 | 0.00 | 0.18 | 0.00 | 90 | 1018.3 |
| 20260509063046 | 8 | 74 | 9.7 | 19.3 | 0.00 | 0.18 | 0.00 | 90 | 1018.2 |
| 20260509061544 | 8 | 52 | 9.7 | 17.7 | 0.00 | 0.18 | 0.00 | 90 | 1018.3 |
| 20260509060050 | 8 | 90 | 8.0 | 20.9 | 0.00 | 0.18 | 0.00 | 90 | 1018.2 |
| 20260509054549 | 8 | 49 | 9.7 | 17.7 | 0.00 | 0.18 | 0.00 | 90 | 1018.2 |
| 20260509053052 | 8 | 51 | 8.0 | 17.7 | 0.00 | 0.18 | 0.00 | 90 | 1018.1 |
| 20260509051551 | 8 | 55 | 9.7 | 17.7 | 0.00 | 0.18 | 0.00 | 90 | 1018.1 |
| 20260509050046 | 8 | 24 | 8.0 | 17.7 | 0.00 | 0.18 | 0.00 | 90 | 1018.1 |
| 20260509044550 | 8 | 53 | 8.0 | 14.5 | 0.00 | 0.18 | 0.00 | 91 | 1018.1 |
| 20260509043055 | 8 | 72 | 11.3 | 17.7 | 0.00 | 0.18 | 0.00 | 91 | 1017.9 |
| 20260509041548 | 8 | 78 | 9.7 | 16.1 | 0.00 | 0.18 | 0.00 | 91 | 1017.9 |
| 20260509040043 | 8 | 38 | 6.4 | 11.3 | 0.00 | 0.18 | 0.00 | 91 | 1017.9 |
| 20260509034551 | 8 | 46 | 3.2 | 9.7 | 0.00 | 0.18 | 0.00 | 91 | 1017.9 |
| 20260509033054 | 8 | 49 | 1.6 | 11.3 | 0.00 | 0.18 | 0.00 | 91 | 1017.8 |
| 20260509031545 | 8 | 38 | 6.4 | 14.5 | 0.00 | 0.18 | 0.00 | 90 | 1017.8 |
| 20260509030049 | 8 | 39 | 6.4 | 14.5 | 0.00 | 0.18 | 0.00 | 91 | 1017.9 |
| 20260509024617 | 8 | 49 | 6.4 | 12.9 | 0.00 | 0.18 | 0.00 | 91 | 1017.8 |
| 20260509023044 | 8 | 42 | 8.0 | 12.9 | 0.00 | 0.18 | 0.00 | 91 | 1017.8 |
| 20260509021549 | 8 | 360 | 6.4 | 14.5 | 0.00 | 0.18 | 0.00 | 90 | 1017.9 |
| 20260509020043 | 8 | 42 | 8.0 | 14.5 | 0.00 | 0.18 | 0.00 | 90 | 1017.9 |
| 20260509014550 | 8 | 44 | 6.4 | 11.3 | 0.00 | 0.18 | 0.00 | 90 | 1018.0 |
| 20260509013054 | 8 | 44 | 6.4 | 14.5 | 0.00 | 0.18 | 0.00 | 90 | 1018.1 |
| 20260509011549 | 8 | 35 | 6.4 | 14.5 | 0.00 | 0.18 | 0.00 | 90 | 1018.0 |
| 20260509010051 | 8 | 53 | 6.4 | 11.3 | 0.00 | 0.18 | 0.00 | 90 | 1017.9 |
| 20260509004554 | 9 | 63 | 6.4 | 12.9 | 0.00 | 0.18 | 0.00 | 90 | 1017.8 |
| 20260509003048 | 9 | 46 | 8.0 | 14.5 | 0.00 | 0.18 | 0.00 | 90 | 1017.9 |
| 20260509001554 | 9 | 45 | 3.2 | 14.5 | 0.00 | 0.18 | 0.00 | 89 | 1017.9 |
| 20260509000049 | 9 | 21 | 6.4 | 11.3 | 0.00 | 0.18 | 0.00 | 89 | 1018.1 |
| 20260508234552 | 9 | 48 | 4.8 | 12.9 | 0.00 | 0.20 | 0.00 | 89 | 1018.1 |
| 20260508233052 | 10 | 51 | 4.8 | 11.3 | 0.00 | 0.20 | 0.00 | 89 | 1018.1 |
| 20260508231552 | 10 | 55 | 6.4 | 11.3 | 0.00 | 0.20 | 0.00 | 89 | 1018.2 |
| 20260508230051 | 10 | 44 | 3.2 | 9.7 | 0.00 | 0.20 | 0.00 | 89 | 1018.3 |
| 20260508224549 | 10 | 59 | 4.8 | 9.7 | 0.00 | 0.30 | 0.00 | 89 | 1018.4 |
| 20260508223051 | 10 | 57 | 4.8 | 12.9 | 0.00 | 0.30 | 0.00 | 89 | 1018.4 |
| 20260508221555 | 10 | 57 | 6.4 | 9.7 | 0.00 | 0.30 | 0.00 | 88 | 1018.4 |
| 20260508220058 | 10 | 48 | 4.8 | 14.5 | 0.00 | 0.30 | 0.00 | 88 | 1018.3 |
| 20260508214603 | 10 | 42 | 3.2 | 8.0 | 0.00 | 0.30 | 0.30 | 88 | 1018.4 |
| 20260508213049 | 10 | 37 | 3.2 | 16.1 | 0.00 | 0.30 | 0.30 | 88 | 1018.5 |